Wind_Speed
4 3 4 5 6 7 8 9 10 10 10 9 8 8 7 7 7 7 8 7 7 8 8 9 9 10 10 11 11 12 13 14 15 16 16 17 17 17 18 18 18 18 18 18 18 18 18 17 17
3 3 3 4 4 4 5 7 10 11 10 9 8 8 8 7 7 7 8 7 8 8 8 9 9 10 10 11 12 13 13 14 15 16 16 16 16 17 17 17 17 17 18 17 17 17 17 17 16
3 3 3 3 3 3 4 6 8 9 9 9 8 8 8 8 8 8 9 9 9 9 9 9 10 10 11 11 12 13 14 14 15 15 15 16 16 16 16 17 17 17 17 17 17 17 17 16 16
2 2 2 2 3 3 4 4 5 6 7 7 6 7 7 8 8 9 10 10 10 10 10 11 11 11 12 12 13 13 14 14 15 15 15 16 16 16 16 17 17 17 17 17 17 17 17 17 16
1 1 1 2 2 2 3 3 4 4 4 4 4 5 7 7 8 9 11 12 12 12 12 12 12 12 13 13 13 14 14 15 15 16 16 17 17 17 17 17 17 17 17 18 18 18 18 18 18
1 0 0 1 0 1 2 2 2 2 2 2 3 4 6 6 7 8 9 11 12 12 12 13 13 14 14 14 15 15 15 16 16 17 17 18 18 19 19 19 19 19 20 20 20 20 20 20 20
3 2 1 1 1 2 1 1 0 0 1 2 2 4 6 7 7 7 8 10 12 12 13 13 14 14 15 15 16 16 17 18 18 19 19 20 20 21 21 22 22 22 22 23 23 23 23 23 23
6 5 4 3 3 3 3 3 2 2 3 3 3 4 7 8 8 8 9 11 13 14 14 14 15 16 16 17 18 18 19 19 20 21 21 22 22 23 23 24 24 25 25 26 26 26 27 27 27
9 8 7 6 5 5 6 6 6 6 5 6 6 7 8 9 10 10 10 11 13 15 15 16 17 18 18 19 19 20 21 21 22 22 22 23 24 24 25 26 26 27 27 28 28 29 30 30 30
12 11 10 9 9 9 9 9 9 10 10 10 10 10 11 11 12 13 13 13 14 16 17 18 18 19 20 20 21 21 21 22 22 23 24 24 25 26 26 27 28 28 29 29 30 31 31 32 33
15 14 13 12 12 12 12 12 13 13 14 14 14 14 14 15 15 16 16 16 16 17 18 19 20 20 21 21 21 21 22 22 23 24 24 25 25 26 27 27 28 29 30 30 31 32 32 33 34
18 17 16 15 16 16 15 16 16 16 17 17 17 17 17 17 18 19 19 19 19 18 19 20 21 21 21 22 22 22 22 22 23 23 24 24 25 26 27 28 29 29 30 31 31 32 33 33 34
21 21 20 19 19 18 18 18 18 19 19 19 19 19 19 19 20 20 20 20 20 20 19 20 21 21 22 22 22 22 22 23 24 24 25 25 26 27 27 28 29 30 31 32 32 33 34 34 34
24 24 23 22 22 21 21 20 20 22 21 20 20 20 21 20 21 20 20 21 21 21 21 21 21 21 22 22 22 23 23 24 25 26 26 27 28 29 29 30 31 31 32 32 33 34 34 35 35
27 26 26 25 24 24 23 22 22 23 22 22 22 22 22 22 22 22 21 22 22 22 22 21 21 22 22 22 23 24 24 25 26 27 28 29 30 30 31 32 33 33 33 34 34 35 35 36 36
29 29 29 28 26 25 24 23 24 24 24 23 23 23 23 23 23 23 22 22 23 23 23 22 22 23 23 24 24 25 26 27 28 29 30 31 31 32 32 33 34 34 35 35 36 36 37 37 37
31 30 30 29 27 26 25 25 26 26 25 25 24 24 25 24 24 24 23 23 23 23 23 23 23 24 25 25 25 26 27 28 29 30 31 32 32 33 33 34 35 35 36 36 36 36 36 36 37
32 31 31 30 29 28 27 27 28 28 27 26 26 26 26 25 25 24 24 24 23 24 24 24 24 25 25 26 27 28 29 30 31 31 32 32 33 33 34 35 36 36 36 36 36 36 36 36 36
34 33 32 32 31 30 29 28 29 28 27 27 26 26 26 26 25 25 24 24 24 24 24 24 25 25 26 27 28 28 30 31 32 32 32 33 33 34 34 35 36 36 36 36 36 35 36 36 37
34 33 33 34 34 32 30 28 29 29 28 28 26 26 26 26 26 25 25 24 24 25 25 25 25 26 27 27 28 29 30 31 32 33 33 34 34 35 35 36 36 36 36 36 36 37 37 39 40
32 33 33 34 35 34 32 29 28 29 29 28 27 26 26 26 26 25 25 24 24 25 25 26 26 27 27 28 29 30 31 32 33 34 34 35 35 36 36 36 37 37 37 38 39 40 40 41 43
32 33 35 36 36 34 33 30 26 28 28 28 28 27 26 26 26 25 25 25 25 25 26 26 27 28 29 30 30 31 32 33 34 35 35 36 37 38 38 38 38 39 40 41 42 43 44 44 46
33 34 36 36 36 34 32 34 26 28 28 29 28 26 26 25 25 25 24 25 25 25 26 27 28 29 30 31 32 33 34 35 36 37 38 38 39 39 40 41 41 41 42 43 44 46 47 48 49
34 35 37 37 37 35 32 34 28 26 28 28 27 26 25 25 25 24 24 24 25 26 27 28 29 30 31 33 34 35 36 37 38 39 39 40 40 41 41 42 43 44 44 46 47 48 50 51 53
35 35 37 37 37 35 33 33 28 26 27 27 27 26 25 25 24 24 24 25 26 27 28 29 30 32 33 35 36 37 38 40 41 41 41 41 42 42 43 44 45 46 47 48 49 51 52 54 56
35 36 36 37 37 35 33 32 27 25 26 26 26 25 24 24 24 24 25 26 27 28 29 31 32 33 35 37 38 40 41 42 42 43 43 44 44 44 45 46 47 48 49 50 52 53 55 57 58
34 34 34 37 37 35 33 31 28 26 25 26 25 25 24 24 24 25 26 27 28 29 30 32 33 35 37 38 40 41 43 44 45 45 45 45 46 46 47 47 48 50 51 53 54 55 57 59 61
33 33 34 35 36 35 33 30 29 26 25 25 25 25 24 24 25 25 27 28 29 31 32 34 35 37 39 40 42 43 45 46 46 47 47 47 48 48 49 50 51 52 53 54 56 58 60 61 62
33 33 34 35 35 34 32 28 26 26 26 25 25 24 24 25 25 26 28 29 31 32 34 35 37 39 41 43 44 46 47 47 48 48 48 49 49 50 51 52 53 54 55 57 58 60 61 62 64
34 33 33 34 34 34 32 28 26 27 27 26 25 24 25 26 27 28 29 30 32 33 35 37 39 41 43 45 46 47 48 49 49 49 50 51 51 52 53 54 55 56 58 59 60 61 63 64 66
Wind_Direction
91 126 160 178 192 198 194 193 196 194 196 196 197 202 204 208 216 228 233 237 245 252 258 263 268 273 278 281 284 287 288 290 291 291 291 290 289 288 286 285 284 282 280 278 276 275 274 273 273
89 106 135 156 171 178 183 192 198 199 203 204 204 210 216 219 224 234 238 243 246 253 260 264 271 275 278 280 282 285 287 289 289 290 290 289 288 287 286 285 283 281 279 277 275 273 272 271 271
80 96 112 125 130 143 167 186 198 204 208 211 213 218 228 233 236 242 248 250 252 257 262 266 272 276 279 281 283 285 287 288 288 289 289 289 288 287 286 284 282 280 278 276 275 273 271 270 269
85 90 102 104 107 129 151 165 181 194 204 211 217 222 231 239 243 248 256 258 259 262 264 268 273 276 279 281 283 285 285 286 288 288 288 287 287 287 286 284 282 280 278 276 274 272 270 268 266
101 96 96 90 105 138 150 146 149 163 187 202 213 227 237 243 249 255 261 265 267 268 268 270 274 277 280 281 282 283 284 285 286 286 287 286 286 285 285 284 282 279 276 275 273 271 268 267 266
208 203 115 64 35 166 179 153 143 151 180 204 212 234 247 250 253 257 263 267 270 271 272 273 275 278 280 281 282 282 283 284 284 284 285 285 284 284 283 283 281 278 276 274 273 271 269 267 265
237 242 242 255 269 260 249 241 201 192 237 253 247 244 260 264 264 264 265 271 274 276 277 279 280 281 282 283 283 284 284 284 284 284 284 283 283 282 282 281 279 278 276 275 273 272 270 268 266
243 248 251 261 269 270 272 272 272 271 265 276 276 263 265 273 275 274 272 274 277 280 281 282 283 284 284 285 285 285 285 285 284 284 284 283 282 281 281 280 279 278 277 275 274 273 272 270 268
247 249 252 258 263 266 270 274 277 279 279 278 277 273 271 275 278 278 277 276 277 280 282 283 283 284 285 286 286 286 285 285 285 285 284 283 283 282 281 280 279 278 277 276 275 273 272 271 270
247 251 255 259 263 265 270 276 279 280 279 277 277 278 277 277 278 278 278 278 280 282 284 285 285 286 286 287 287 287 287 286 286 286 285 284 283 283 282 281 280 279 278 277 276 275 274 273 272
247 252 256 260 263 266 269 273 277 279 279 278 279 279 279 279 279 280 280 279 280 282 284 286 286 287 288 288 288 288 288 288 288 288 287 286 285 284 283 282 281 280 279 279 278 277 276 275 274
248 252 256 259 262 266 270 273 277 278 278 280 280 280 279 278 279 280 281 281 280 281 283 286 286 287 288 289 289 289 289 290 290 290 289 288 287 286 285 284 283 282 281 280 279 278 277 276 276
247 251 255 258 262 267 270 274 277 277 278 280 280 279 279 279 280 280 281 281 282 282 283 284 286 286 287 288 289 290 291 292 292 292 291 290 289 288 286 285 284 283 282 281 280 279 278 276 275
248 252 255 258 261 265 269 274 276 276 278 279 279 278 278 278 278 279 280 280 281 281 282 283 284 285 286 288 289 290 291 292 293 293 292 291 290 289 287 286 284 283 282 282 281 280 280 279 278
249 252 255 257 260 264 268 272 274 276 278 278 279 280 279 278 277 277 278 278 278 279 281 282 283 283 285 287 288 290 291 292 293 293 292 291 290 288 287 285 284 283 282 281 280 280 279 278 278
248 251 255 258 261 263 266 271 274 275 276 277 278 279 278 278 277 276 276 275 276 278 279 281 282 283 285 286 287 288 289 290 292 292 292 291 290 288 287 286 284 284 283 282 281 280 279 278 277
249 252 255 257 259 262 266 270 273 274 275 276 277 277 276 276 276 275 274 273 274 276 278 280 281 283 284 285 286 288 289 290 291 292 292 291 290 289 288 287 286 285 284 283 282 280 279 278 278
250 252 254 255 256 259 264 268 270 272 273 274 275 275 274 274 274 274 273 273 273 274 277 278 280 282 283 285 287 288 290 291 292 292 292 291 290 290 289 288 287 286 285 283 282 280 279 278 278
250 252 253 255 257 258 261 266 269 271 273 273 272 271 271 272 272 271 271 271 271 273 275 276 278 280 282 284 286 288 290 291 292 293 293 293 292 291 290 289 288 286 285 283 282 281 280 280 279
249 251 252 255 258 260 260 263 267 270 271 272 272 270 270 270 270 268 268 268 269 270 272 274 276 278 281 283 286 289 291 293 294 294 294 293 292 291 291 290 289 286 284 283 282 282 282 282 281
248 250 252 256 259 262 262 263 266 267 269 271 270 269 268 268 267 267 266 266 267 268 270 273 275 278 280 283 286 289 292 293 294 295 294 293 292 292 291 290 288 286 284 283 283 283 283 283 283
249 251 252 255 258 262 265 265 264 267 269 269 269 268 268 266 266 265 264 265 266 268 270 273 276 278 281 284 287 290 292 293 294 295 295 294 292 291 290 289 288 287 286 284 284 284 284 284 284
249 251 253 256 259 261 266 269 264 266 268 269 269 269 267 265 264 265 265 265 266 268 270 273 276 279 282 285 287 290 292 294 295 295 295 294 293 291 290 289 288 287 287 286 285 285 285 285 285
249 251 254 256 259 262 264 269 269 267 268 269 269 268 266 265 264 264 264 265 267 269 272 275 278 280 283 285 288 290 292 294 295 295 295 294 293 292 290 289 288 287 287 287 287 287 287 287 287
249 251 254 257 259 263 264 266 270 268 266 267 267 266 265 264 263 264 264 266 268 271 273 276 279 281 284 286 288 290 292 294 295 296 296 295 294 292 291 290 289 288 287 287 288 288 288 288 289
247 249 253 257 260 261 263 265 267 265 265 266 266 265 263 263 264 264 266 268 270 273 275 277 280 283 285 287 289 291 293 294 295 295 295 295 294 293 292 291 290 289 289 289 289 289 289 290 291
247 249 252 256 259 260 261 265 266 265 264 265 265 264 264 265 265 266 268 270 272 274 277 279 282 284 287 288 290 292 293 294 295 295 295 294 293 293 293 292 291 290 290 290 290 291 291 292 292
246 247 249 253 258 261 263 264 266 265 265 264 264 264 265 266 267 269 271 273 275 277 279 281 283 286 288 289 290 292 293 294 295 295 294 294 294 294 293 293 292 291 291 292 292 292 293 293 293
243 244 247 251 255 260 263 264 266 266 265 264 264 265 266 268 270 272 274 276 278 280 281 283 285 287 288 290 291 292 294 294 294 294 294 294 294 294 294 293 293 292 292 293 293 293 294 294 295
243 244 246 250 255 258 261 262 264 266 266 267 266 267 268 270 273 275 277 279 281 282 284 286 287 288 289 291 292 293 294 294 294 294 294 294 294 294 294 293 293 293 294 294 295 295 295 296 297
Height
5873 5873 5873 5874 5875 5876 5877 5879 5880 5881 5882 5883 5884 5885 5886 5887 5888 5890 5888 5888 5888 5888 5889 5889 5889 5888 5888 5888 5888 5887 5887 5886 5885 5885 5884 5883 5883 5882 5881 5880 5879 5879 5878 5877 5876 5876 5875 5874 5874
5874 5874 5875 5875 5875 5876 5877 5878 5879 5880 5881 5882 5883 5884 5885 5885 5886 5886 5886 5886 5887 5887 5887 5887 5886 5886 5886 5886 5885 5885 5884 5883 5883 5882 5881 5880 5879 5879 5878 5877 5876 5875 5874 5874 5873 5872 5871 5871 5870
5875 5875 5876 5875 5875 5876 5877 5877 5878 5879 5880 5881 5882 5883 5884 5884 5885 5884 5884 5885 5885 5885 5885 5884 5884 5884 5884 5883 5883 5882 5882 5881 5880 5879 5878 5877 5876 5876 5875 5874 5873 5872 5871 5870 5869 5869 5868 5867 5866
5876 5876 5877 5877 5876 5877 5877 5877 5877 5878 5879 5880 5881 5882 5882 5883 5883 5883 5883 5883 5883 5883 5883 5882 5882 5882 5881 5881 5880 5880 5879 5878 5877 5876 5875 5874 5874 5873 5872 5871 5870 5869 5868 5867 5866 5865 5864 5864 5863
5876 5876 5877 5876 5876 5877 5877 5877 5877 5877 5878 5879 5880 5880 5881 5881 5882 5882 5881 5881 5881 5881 5880 5880 5879 5879 5879 5878 5877 5877 5876 5875 5874 5874 5873 5872 5871 5869 5868 5867 5866 5865 5864 5863 5863 5862 5861 5860 5859
5877 5876 5877 5876 5877 5878 5877 5877 5877 5877 5877 5878 5879 5879 5879 5879 5880 5880 5879 5879 5878 5878 5878 5877 5877 5876 5876 5875 5875 5874 5873 5872 5871 5870 5869 5868 5867 5866 5865 5864 5863 5862 5861 5860 5859 5858 5857 5856 5855
5877 5876 5876 5876 5877 5878 5877 5877 5877 5877 5877 5877 5878 5878 5877 5877 5878 5878 5878 5877 5876 5875 5875 5875 5874 5873 5873 5872 5872 5871 5870 5869 5868 5867 5866 5865 5863 5862 5861 5860 5859 5858 5857 5856 5855 5854 5853 5852 5851
5875 5876 5876 5876 5877 5877 5877 5876 5876 5876 5876 5876 5876 5876 5876 5876 5875 5876 5876 5875 5873 5873 5872 5872 5871 5870 5870 5869 5868 5867 5866 5865 5864 5863 5862 5861 5859 5858 5857 5856 5854 5853 5852 5851 5850 5849 5848 5847 5846
5874 5876 5875 5876 5876 5876 5876 5875 5875 5875 5875 5875 5874 5874 5874 5874 5873 5873 5873 5873 5871 5870 5869 5869 5868 5867 5866 5865 5865 5864 5862 5861 5860 5859 5857 5856 5855 5853 5852 5851 5849 5848 5847 5846 5845 5843 5842 5842 5841
5873 5874 5874 5874 5874 5874 5874 5874 5874 5873 5873 5873 5872 5872 5871 5871 5870 5870 5870 5870 5868 5867 5866 5865 5864 5863 5862 5861 5860 5859 5858 5857 5856 5854 5853 5851 5850 5848 5847 5846 5844 5843 5841 5840 5839 5838 5836 5835 5834
5870 5871 5872 5872 5872 5872 5872 5872 5871 5871 5870 5870 5870 5869 5868 5868 5867 5866 5866 5866 5865 5864 5862 5861 5860 5859 5858 5857 5856 5855 5854 5853 5851 5850 5848 5847 5845 5843 5842 5840 5838 5837 5835 5834 5833 5831 5830 5829 5827
5867 5868 5868 5869 5869 5869 5869 5869 5868 5868 5868 5867 5866 5866 5865 5864 5863 5863 5862 5861 5861 5860 5859 5857 5856 5855 5854 5853 5852 5850 5849 5848 5846 5845 5843 5842 5840 5838 5836 5834 5833 5831 5829 5828 5826 5825 5823 5822 5820
5863 5864 5864 5865 5865 5865 5865 5865 5865 5864 5863 5863 5862 5861 5861 5860 5859 5859 5858 5856 5856 5855 5855 5853 5852 5851 5849 5848 5847 5846 5844 5843 5842 5840 5838 5837 5835 5833 5831 5829 5827 5825 5823 5821 5820 5818 5816 5815 5813
5859 5859 5860 5861 5861 5861 5861 5861 5861 5859 5859 5859 5858 5857 5857 5856 5855 5854 5853 5852 5851 5850 5850 5849 5848 5847 5845 5844 5843 5841 5840 5838 5836 5835 5833 5831 5829 5827 5825 5823 5821 5819 5817 5815 5813 5810 5809 5807 5805
5853 5855 5855 5856 5856 5857 5857 5857 5856 5855 5855 5854 5853 5852 5852 5851 5850 5850 5849 5848 5846 5845 5845 5844 5843 5842 5841 5840 5838 5836 5835 5833 5831 5829 5827 5825 5823 5821 5819 5816 5814 5812 5810 5808 5806 5803 5801 5799 5798
5848 5849 5850 5851 5852 5852 5854 5853 5852 5851 5850 5850 5849 5848 5846 5846 5845 5844 5844 5843 5842 5840 5840 5839 5838 5837 5836 5835 5833 5831 5830 5828 5826 5823 5821 5819 5816 5814 5812 5809 5807 5805 5802 5800 5798 5796 5794 5791 5789
5842 5844 5845 5846 5846 5846 5847 5848 5846 5845 5845 5845 5844 5842 5841 5840 5840 5839 5838 5837 5836 5835 5835 5834 5833 5832 5830 5829 5827 5826 5824 5822 5820 5817 5815 5812 5809 5807 5804 5801 5799 5796 5794 5791 5789 5787 5785 5783 5781
5836 5838 5839 5840 5840 5841 5841 5842 5841 5840 5840 5839 5838 5837 5836 5835 5834 5833 5832 5832 5831 5830 5829 5828 5827 5826 5825 5823 5821 5820 5818 5816 5813 5810 5808 5805 5802 5799 5796 5793 5791 5788 5785 5783 5781 5778 5776 5774 5772
5830 5832 5833 5833 5834 5835 5836 5836 5835 5834 5834 5833 5833 5831 5830 5829 5828 5827 5827 5826 5825 5824 5824 5823 5822 5820 5819 5817 5816 5814 5811 5809 5806 5803 5800 5797 5795 5792 5788 5785 5782 5780 5777 5774 5772 5770 5767 5764 5762
5823 5825 5826 5826 5827 5828 5829 5830 5829 5828 5828 5827 5826 5825 5824 5823 5822 5821 5821 5820 5819 5819 5818 5817 5816 5815 5813 5811 5809 5807 5804 5802 5799 5796 5793 5790 5787 5784 5780 5777 5774 5771 5768 5766 5763 5761 5758 5755 5752
5816 5818 5819 5820 5819 5820 5822 5824 5823 5822 5821 5820 5820 5819 5818 5817 5816 5815 5815 5814 5813 5813 5812 5811 5810 5808 5807 5805 5803 5800 5798 5795 5792 5788 5785 5782 5779 5776 5772 5769 5766 5763 5760 5757 5754 5751 5749 5746 5742
5810 5811 5812 5812 5813 5814 5815 5816 5818 5815 5815 5814 5813 5812 5811 5810 5810 5809 5808 5808 5807 5807 5806 5805 5803 5802 5800 5798 5796 5793 5790 5787 5784 5781 5777 5774 5770 5767 5764 5760 5757 5754 5751 5748 5744 5741 5738 5736 5733
5803 5803 5804 5805 5805 5807 5808 5807 5813 5810 5808 5807 5807 5806 5805 5804 5804 5803 5802 5802 5801 5800 5799 5798 5797 5795 5793 5791 5788 5786 5783 5780 5776 5773 5769 5765 5762 5758 5755 5751 5748 5744 5741 5738 5734 5731 5727 5724 5721
5795 5796 5797 5797 5798 5801 5802 5800 5804 5804 5802 5801 5800 5800 5798 5798 5797 5797 5796 5796 5795 5794 5793 5791 5790 5788 5786 5783 5780 5777 5774 5771 5768 5764 5760 5756 5753 5749 5745 5741 5738 5734 5730 5727 5723 5720 5716 5712 5708
5788 5790 5790 5790 5791 5794 5794 5793 5797 5796 5795 5794 5794 5793 5792 5792 5791 5791 5790 5789 5788 5787 5786 5784 5782 5780 5778 5775 5772 5769 5766 5762 5758 5755 5751 5747 5743 5739 5735 5731 5727 5723 5719 5716 5712 5708 5703 5699 5695
5779 5781 5783 5784 5784 5786 5786 5786 5790 5789 5788 5787 5787 5786 5786 5785 5785 5784 5783 5783 5781 5780 5779 5777 5774 5772 5769 5766 5763 5760 5756 5752 5749 5745 5741 5736 5732 5728 5724 5720 5716 5712 5708 5703 5699 5695 5690 5686 5681
5772 5774 5776 5776 5775 5777 5779 5780 5782 5782 5782 5781 5780 5780 5779 5779 5778 5777 5777 5775 5774 5773 5771 5769 5766 5763 5760 5757 5754 5750 5747 5743 5739 5734 5730 5726 5722 5717 5713 5709 5704 5700 5695 5691 5686 5682 5676 5671 5666
5765 5767 5767 5767 5768 5769 5771 5773 5775 5775 5775 5775 5774 5773 5773 5772 5771 5770 5769 5768 5766 5765 5763 5760 5757 5754 5751 5748 5744 5740 5736 5732 5728 5724 5719 5715 5710 5706 5701 5697 5692 5687 5682 5677 5673 5668 5662 5657 5651
5757 5759 5760 5760 5761 5762 5764 5769 5767 5767 5767 5767 5767 5767 5766 5766 5765 5763 5762 5760 5758 5756 5754 5751 5748 5745 5741 5737 5734 5730 5725 5721 5717 5712 5708 5703 5699 5694 5689 5684 5679 5674 5669 5664 5658 5653 5647 5641 5635
5749 5751 5753 5755 5755 5755 5756 5763 5760 5759 5759 5759 5760 5760 5759 5759 5757 5756 5754 5752 5750 5747 5745 5742 5738 5735 5731 5727 5723 5719 5714 5710 5705 5701 5696 5691 5686 5681 5676 5671 5666 5660 5655 5649 5643 5638 5631 5625 5618